Powrót do katalogu

COSMOS 1176 COOLANT

AktywnyLEO
NORAD 27568·DEBRIS·🇷🇺 Russia

Wystrzelony Apr 29, 1980 z Baikonur Cosmodrome

Loading…

Następne Przeloty (najbliższe 24 godziny)

TLE

NieaktualneSource: Space-Track

Epoka: Sep 2, 2026, 08:24 UTC

1 27568U 80034E   26245.35020832  .00000129  00000-0  11834-3 0  9997
2 27568  64.8182 270.2927 0048220 226.0913 133.6176 14.13561801110398

Śledź COSMOS 1176 COOLANT w czasie rzeczywistym z AllMySat

Download on the App Store